Previsão horária em Jurandow

Hoje, 19 Junho, Sábado

Tempo Temperatura Precipitação Vento Pressão Humidade
00:00 +19°C° 0 mm 3 m/s 753 mmHg 83%
01:00 +19°C° 0 mm 2 m/s 753 mmHg 86%
02:00 +18°C° 0 mm 2 m/s 753 mmHg 87%
03:00 +18°C° 0 mm 2 m/s 753 mmHg 88%
04:00 +18°C° 0 mm 2 m/s 753 mmHg 89%
05:00 +20°C° 0 mm 3 m/s 753 mmHg 82%
06:00 +21°C° 0 mm 3 m/s 753 mmHg 76%
07:00 +23°C° 0 mm 4 m/s 753 mmHg 69%
08:00 +26°C° 0 mm 4 m/s 752 mmHg 65%
09:00 +27°C° 0 mm 4 m/s 752 mmHg 62%
10:00 +28°C° 0 mm 5 m/s 752 mmHg 58%
11:00 +29°C° 0 mm 5 m/s 752 mmHg 55%
12:00 +30°C° 0 mm 4 m/s 752 mmHg 53%
13:00 +30°C° 0 mm 4 m/s 752 mmHg 50%
14:00 +30°C° 0 mm 4 m/s 751 mmHg 50%
15:00 +30°C° 0 mm 4 m/s 751 mmHg 50%
16:00 +30°C° 0 mm 3 m/s 751 mmHg 50%
17:00 +29°C° 0 mm 4 m/s 751 mmHg 58%
18:00 +27°C° 0 mm 4 m/s 751 mmHg 66%
19:00 +25°C° 0 mm 4 m/s 751 mmHg 74%
20:00 +24°C° 0 mm 3 m/s 751 mmHg 77%
21:00 +22°C° 0 mm 3 m/s 751 mmHg 79%
22:00 +21°C° 0 mm 3 m/s 751 mmHg 82%
23:00 +21°C° 0 mm 3 m/s 751 mmHg 85%

Amanhã, 20 Junho, Domingo

Tempo Temperatura Precipitação Vento Pressão Humidade
00:00 +20°C° 0 mm 3 m/s 751 mmHg 88%
01:00 +19°C° 0 mm 2 m/s 751 mmHg 91%
02:00 +19°C° 0 mm 3 m/s 751 mmHg 93%
03:00 +18°C° 0 mm 3 m/s 750 mmHg 94%
04:00 +18°C° 0 mm 3 m/s 750 mmHg 95%
05:00 +20°C° 0 mm 3 m/s 750 mmHg 87%
06:00 +21°C° 0 mm 3 m/s 750 mmHg 80%
07:00 +23°C° 0 mm 4 m/s 750 mmHg 72%
08:00 +25°C° 0 mm 4 m/s 750 mmHg 67%
09:00 +26°C° 0 mm 4 m/s 750 mmHg 61%
10:00 +28°C° 0 mm 4 m/s 750 mmHg 55%
11:00 +28°C° 0 mm 4 m/s 750 mmHg 53%
12:00 +29°C° 0 mm 4 m/s 749 mmHg 51%
13:00 +30°C° 0 mm 4 m/s 749 mmHg 48%
14:00 +30°C° 0 mm 4 m/s 749 mmHg 49%
15:00 +30°C° 0 mm 4 m/s 748 mmHg 50%
16:00 +30°C° 0 mm 4 m/s 748 mmHg 51%
17:00 +28°C° 0.1 mm 4 m/s 748 mmHg 59%
18:00 +27°C° 0.1 mm 4 m/s 748 mmHg 68%
19:00 +26°C° 0.1 mm 3 m/s 748 mmHg 76%
20:00 +24°C° 0 mm 3 m/s 748 mmHg 81%
21:00 +22°C° 0 mm 3 m/s 747 mmHg 85%
22:00 +21°C° 0 mm 3 m/s 747 mmHg 90%
23:00 +21°C° 0 mm 3 m/s 747 mmHg 91%

Depois de amanhã, 21 Junho, Segunda-feira

Tempo Temperatura Precipitação Vento Pressão Humidade
00:00 +20°C° 0 mm 3 m/s 747 mmHg 92%
01:00 +20°C° 0 mm 3 m/s 747 mmHg 93%
02:00 +19°C° 0 mm 3 m/s 747 mmHg 93%
03:00 +19°C° 0 mm 3 m/s 746 mmHg 93%
04:00 +19°C° 0 mm 3 m/s 746 mmHg 93%
05:00 +20°C° 0 mm 4 m/s 746 mmHg 87%
06:00 +22°C° 0 mm 4 m/s 746 mmHg 81%
07:00 +23°C° 0 mm 5 m/s 746 mmHg 75%
08:00 +25°C° 0 mm 5 m/s 746 mmHg 70%
09:00 +27°C° 0 mm 5 m/s 746 mmHg 65%
10:00 +28°C° 0 mm 5 m/s 746 mmHg 60%
11:00 +28°C° 0 mm 5 m/s 746 mmHg 60%
12:00 +28°C° 0 mm 4 m/s 745 mmHg 61%
13:00 +28°C° 0 mm 3 m/s 745 mmHg 62%
14:00 +28°C° 0 mm 4 m/s 745 mmHg 61%
15:00 +28°C° 0 mm 4 m/s 745 mmHg 60%
16:00 +29°C° 0 mm 4 m/s 745 mmHg 59%
17:00 +28°C° 0.1 mm 4 m/s 745 mmHg 64%
18:00 +27°C° 0.1 mm 3 m/s 745 mmHg 70%
19:00 +26°C° 0.1 mm 3 m/s 745 mmHg 75%
20:00 +24°C° 0.1 mm 3 m/s 745 mmHg 79%
21:00 +22°C° 0.1 mm 3 m/s 745 mmHg 83%
22:00 +21°C° 0.1 mm 3 m/s 745 mmHg 87%
23:00 +21°C° 0 mm 2 m/s 745 mmHg 89%

22 Junho, Terça-feira

Tempo Temperatura Precipitação Vento Pressão Humidade
00:00 +20°C° 0 mm 2 m/s 745 mmHg 91%
01:00 +20°C° 0 mm 2 m/s 745 mmHg 93%
02:00 +20°C° 0 mm 2 m/s 745 mmHg 93%
03:00 +20°C° 0 mm 2 m/s 745 mmHg 93%
04:00 +20°C° 0 mm 2 m/s 745 mmHg 93%
05:00 +21°C° 0.1 mm 2 m/s 746 mmHg 88%
06:00 +24°C° 0.1 mm 2 m/s 746 mmHg 82%
07:00 +25°C° 0.1 mm 2 m/s 746 mmHg 77%
08:00 +26°C° 0.7 mm 2 m/s 747 mmHg 72%
09:00 +27°C° 0.7 mm 2 m/s 747 mmHg 68%
10:00 +28°C° 0.7 mm 1 m/s 747 mmHg 64%
11:00 +28°C° 0.6 mm 1 m/s 747 mmHg 62%
12:00 +29°C° 0.6 mm 1 m/s 747 mmHg 60%
13:00 +29°C° 0.6 mm 1 m/s 747 mmHg 58%
14:00 +29°C° 0.2 mm 1 m/s 747 mmHg 57%
15:00 +30°C° 0.2 mm 1 m/s 747 mmHg 57%
16:00 +30°C° 0.2 mm 1 m/s 748 mmHg 56%
17:00 +29°C° 0.1 mm 1 m/s 748 mmHg 61%
18:00 +28°C° 0.1 mm 1 m/s 748 mmHg 65%
19:00 +27°C° 0.1 mm 1 m/s 748 mmHg 69%
20:00 +26°C° 0.1 mm 1 m/s 748 mmHg 72%
21:00 +25°C° 0.1 mm 1 m/s 748 mmHg 75%
22:00 +24°C° 0.1 mm 1 m/s 748 mmHg 78%
23:00 +23°C° 0 mm 1 m/s 748 mmHg 79%

23 Junho, Quarta-feira

Tempo Temperatura Precipitação Vento Pressão Humidade
00:00 +23°C° 0 mm 1 m/s 748 mmHg 80%
01:00 +22°C° 0 mm 1 m/s 748 mmHg 82%
02:00 +22°C° 0 mm 1 m/s 748 mmHg 83%
03:00 +22°C° 0 mm 1 m/s 748 mmHg 84%
04:00 +22°C° 0 mm 1 m/s 749 mmHg 85%
05:00 +23°C° 0 mm 1 m/s 749 mmHg 80%
06:00 +25°C° 0 mm 2 m/s 749 mmHg 76%
07:00 +26°C° 0 mm 2 m/s 749 mmHg 71%
08:00 +27°C° 0 mm 2 m/s 749 mmHg 65%
09:00 +29°C° 0 mm 2 m/s 749 mmHg 60%
10:00 +30°C° 0 mm 3 m/s 749 mmHg 54%
11:00 +31°C° 0 mm 2 m/s 749 mmHg 51%
12:00 +31°C° 0 mm 2 m/s 749 mmHg 48%
13:00 +32°C° 0 mm 2 m/s 749 mmHg 45%
14:00 +32°C° 0 mm 2 m/s 749 mmHg 47%
15:00 +31°C° 0 mm 2 m/s 749 mmHg 50%
16:00 +31°C° 0 mm 2 m/s 749 mmHg 52%
17:00 +30°C° 0 mm 2 m/s 749 mmHg 58%
18:00 +29°C° 0 mm 2 m/s 749 mmHg 64%
19:00 +27°C° 0 mm 3 m/s 748 mmHg 70%
20:00 +26°C° 0 mm 3 m/s 749 mmHg 72%
21:00 +25°C° 0 mm 3 m/s 749 mmHg 75%
22:00 +24°C° 0 mm 3 m/s 749 mmHg 78%
23:00 +24°C° 0 mm 3 m/s 749 mmHg 80%

24 Junho, Quinta-feira

Tempo Temperatura Precipitação Vento Pressão Humidade
00:00 +22°C° 0 mm 3 m/s 749 mmHg 83%
01:00 +22°C° 0 mm 3 m/s 749 mmHg 85%
02:00 +22°C° 0 mm 3 m/s 748 mmHg 86%
03:00 +22°C° 0 mm 3 m/s 748 mmHg 87%
04:00 +21°C° 0 mm 3 m/s 748 mmHg 88%
05:00 +22°C° 0.4 mm 3 m/s 749 mmHg 85%
06:00 +23°C° 0.4 mm 4 m/s 749 mmHg 82%
07:00 +25°C° 0.4 mm 4 m/s 749 mmHg 79%
08:00 +25°C° 0.2 mm 4 m/s 750 mmHg 77%
09:00 +25°C° 0.2 mm 5 m/s 750 mmHg 74%
10:00 +25°C° 0.2 mm 5 m/s 751 mmHg 72%
11:00 +26°C° 0.2 mm 5 m/s 751 mmHg 67%
12:00 +27°C° 0.2 mm 5 m/s 751 mmHg 63%
13:00 +27°C° 0.2 mm 5 m/s 751 mmHg 58%
14:00 +27°C° 0 mm 5 m/s 751 mmHg 58%
15:00 +27°C° 0 mm 5 m/s 751 mmHg 57%
16:00 +27°C° 0 mm 5 m/s 751 mmHg 57%
17:00 +26°C° 0 mm 4 m/s 751 mmHg 62%
18:00 +25°C° 0 mm 4 m/s 751 mmHg 66%
19:00 +24°C° 0 mm 3 m/s 751 mmHg 71%
20:00 +21°C° 0 mm 3 m/s 752 mmHg 74%
21:00 +20°C° 0 mm 3 m/s 752 mmHg 77%
22:00 +19°C° 0 mm 2 m/s 752 mmHg 79%
23:00 +19°C° 0 mm 2 m/s 752 mmHg 80%
Mostrar mais

Necessitamos do seu Consentimento

A Meteoprog e os seus Fornecedores de Serviços podem armazenar e aceder a dados pessoais como cookies, identificadores do dispositivo ou outras tecnologias semelhantes existentes no seu dispositivo e processar estes dados para personalizar conteúdos e anúncios, assim como funcionalidades nas redes sociais e análise de tráfego.

  • Armazenar e/ou aceder a informações no seu dispositivo

    Os cookies, identificadores do dispositivo ou outras informações podem ser armazenados ou acedidos no seu dispositivo, para os fins acima indicados.

  • Anúncios e conteúdos personalizados, medição de anúncios e conteúdos, dados sobre o público-alvo e desenvolvimento de produtos

    Os anúncios e os conteúdos podem ser personalizados com base num perfil. Podem ser adicionados dados adicionais para uma maior personalização dos anúncios e dos conteúdos. A eficácia dos anúncios e dos conteúdos pode ser medida. Podem ser obtidas informações sobre o público que visualizou os anúncios e os conteúdos. Estes dados podem ser usados para desenvolver ou melhorar sistemas, softwares ou a experiência do utilizador.

Ao clicar em "Eu concordo”, permitirá o uso de cookies, identificadores do dispositivo e web beacons mencionados ou outras tecnologias semelhantes. As configurações do navegador do seu dispositivo podem ser alteradas.

Para certos fins, podem ser invocados interesses legítimos ao invés de consentimento. Pode ler mais informação sobre este assunto na nossa Política de Privacidade e Cookies.